When you browse on this site, cookies collect data to enhance your experience and personalize the content and advertising you see.
Visit our Privacy Policy to learn more. By continuing to use the site, you agree to this use of cookies and data.
  • In Hungary
  • List of Countries
  • For 7 days
  • Water Temperature
  • Weather Map
  • News
  • Weather Widgets
  • user-avatar
    Login

    Hourly Weather Lobkovo

    Today, 21 February, Friday

    Time Temperature Precipitation Wind Pressure Humidity
    00:00 -1°C° 0 mm 2 mps 751 mmHg 95%
    01:00 -1°C° 0 mm 2 mps 751 mmHg 95%
    02:00 -1°C° 0 mm 2 mps 751 mmHg 95%
    03:00 -1°C° 0 mm 2 mps 751 mmHg 97%
    04:00 -1°C° 0 mm 2 mps 751 mmHg 96%
    05:00 -1°C° 0 mm 2 mps 751 mmHg 96%
    06:00 -2°C° 0 mm 2 mps 751 mmHg 96%
    07:00 -1°C° 0 mm 2 mps 752 mmHg 96%
    08:00 -1°C° 0 mm 2 mps 752 mmHg 97%
    09:00 -1°C° 0 mm 2 mps 752 mmHg 94%
    16:00 +2°C° 0 mm 2 mps 752 mmHg 96%
    17:00 +1°C° 0 mm 2 mps 752 mmHg 96%
    18:00 +1°C° 0 mm 2 mps 752 mmHg 96%
    19:00 +1°C° 0 mm 2 mps 752 mmHg 96%
    20:00 +1°C° 0 mm 2 mps 753 mmHg 96%
    21:00 0°C° 0 mm 3 mps 753 mmHg 97%
    22:00 0°C° 0 mm 3 mps 753 mmHg 97%
    23:00 -1°C° 0 mm 2 mps 753 mmHg 97%

    Tomorrow, 22 February, Saturday

    Time Temperature Precipitation Wind Pressure Humidity
    00:00 -1°C° 0 mm 2 mps 753 mmHg 97%
    01:00 -1°C° 0 mm 2 mps 753 mmHg 97%
    02:00 -1°C° 0 mm 2 mps 754 mmHg 97%
    03:00 -1°C° 0 mm 3 mps 754 mmHg 97%
    04:00 -1°C° 0 mm 3 mps 754 mmHg 97%
    05:00 -1°C° 0 mm 3 mps 754 mmHg 97%
    06:00 -1°C° 0 mm 3 mps 754 mmHg 96%
    07:00 -1°C° 0.1 mm 3 mps 754 mmHg 95%
    08:00 -1°C° 0.1 mm 3 mps 754 mmHg 93%
    09:00 -1°C° 0.1 mm 3 mps 754 mmHg 92%
    10:00 -2°C° 0 mm 4 mps 754 mmHg 89%
    11:00 -1°C° 0 mm 4 mps 754 mmHg 87%
    12:00 -1°C° 0 mm 4 mps 754 mmHg 85%
    13:00 -1°C° 0 mm 4 mps 754 mmHg 84%
    14:00 -1°C° 0 mm 4 mps 754 mmHg 83%
    15:00 -1°C° 0 mm 5 mps 753 mmHg 83%
    16:00 -1°C° 0 mm 4 mps 753 mmHg 85%
    17:00 -2°C° 0 mm 4 mps 752 mmHg 86%
    18:00 -3°C° 0 mm 4 mps 752 mmHg 88%
    19:00 -4°C° 0 mm 5 mps 752 mmHg 88%
    20:00 -4°C° 0 mm 5 mps 751 mmHg 88%
    21:00 -4°C° 0 mm 6 mps 751 mmHg 88%
    22:00 -4°C° 0 mm 6 mps 750 mmHg 88%
    23:00 -5°C° 0 mm 6 mps 749 mmHg 87%

    Day after tomorrow, 23 February, Sunday

    Time Temperature Precipitation Wind Pressure Humidity
    00:00 -6°C° 0 mm 7 mps 748 mmHg 87%
    01:00 -6°C° 0 mm 7 mps 747 mmHg 86%
    02:00 -6°C° 0 mm 8 mps 746 mmHg 85%
    03:00 -6°C° 0 mm 8 mps 745 mmHg 85%
    04:00 -6°C° 0 mm 9 mps 744 mmHg 84%
    05:00 -5°C° 0 mm 9 mps 743 mmHg 84%
    06:00 -5°C° 0 mm 10 mps 741 mmHg 83%
    07:00 -5°C° 0.2 mm 10 mps 741 mmHg 86%
    08:00 -5°C° 0.2 mm 10 mps 740 mmHg 88%
    09:00 -5°C° 0.2 mm 10 mps 739 mmHg 91%
    10:00 -5°C° 0.8 mm 10 mps 738 mmHg 92%
    11:00 -5°C° 0.8 mm 10 mps 737 mmHg 93%
    12:00 -4°C° 0.8 mm 10 mps 736 mmHg 93%
    13:00 -4°C° 0.6 mm 9 mps 735 mmHg 94%
    14:00 -4°C° 0.6 mm 9 mps 735 mmHg 95%
    15:00 -4°C° 0.6 mm 8 mps 734 mmHg 96%
    16:00 -3°C° 0.1 mm 7 mps 734 mmHg 96%
    17:00 -2°C° 0.1 mm 6 mps 733 mmHg 95%
    18:00 -1°C° 0.1 mm 5 mps 733 mmHg 95%
    19:00 -2°C° 0 mm 4 mps 733 mmHg 94%
    20:00 -2°C° 0 mm 4 mps 733 mmHg 93%
    21:00 -3°C° 0 mm 4 mps 733 mmHg 92%
    22:00 -3°C° 0 mm 4 mps 733 mmHg 91%
    23:00 -3°C° 0 mm 4 mps 733 mmHg 90%

    24 February, Monday

    Time Temperature Precipitation Wind Pressure Humidity
    00:00 -4°C° 0 mm 4 mps 732 mmHg 89%
    01:00 -4°C° 0 mm 4 mps 732 mmHg 90%
    02:00 -4°C° 0 mm 4 mps 732 mmHg 90%
    03:00 -4°C° 0 mm 4 mps 732 mmHg 90%
    04:00 -4°C° 0 mm 4 mps 732 mmHg 91%
    05:00 -4°C° 0 mm 4 mps 732 mmHg 91%
    06:00 -4°C° 0 mm 4 mps 731 mmHg 92%
    07:00 -5°C° 0 mm 5 mps 731 mmHg 91%
    08:00 -5°C° 0 mm 5 mps 732 mmHg 91%
    09:00 -5°C° 0 mm 5 mps 732 mmHg 91%
    10:00 -4°C° 0 mm 5 mps 732 mmHg 89%
    11:00 -4°C° 0 mm 5 mps 732 mmHg 88%
    12:00 -2°C° 0 mm 5 mps 732 mmHg 87%
    13:00 -2°C° 0 mm 4 mps 732 mmHg 86%
    14:00 -2°C° 0 mm 4 mps 732 mmHg 86%
    15:00 0°C° 0 mm 3 mps 732 mmHg 85%
    16:00 -1°C° 0 mm 3 mps 732 mmHg 86%
    17:00 -1°C° 0 mm 2 mps 732 mmHg 88%
    18:00 -1°C° 0 mm 2 mps 733 mmHg 89%
    19:00 -2°C° 0 mm 2 mps 733 mmHg 91%
    20:00 -2°C° 0 mm 2 mps 733 mmHg 92%
    21:00 -2°C° 0 mm 2 mps 734 mmHg 93%
    22:00 -2°C° 0 mm 2 mps 734 mmHg 94%
    23:00 -2°C° 0 mm 2 mps 734 mmHg 94%

    25 February, Tuesday

    Time Temperature Precipitation Wind Pressure Humidity
    00:00 -2°C° 0 mm 2 mps 734 mmHg 94%
    01:00 -2°C° 0 mm 3 mps 734 mmHg 93%
    02:00 -2°C° 0 mm 3 mps 734 mmHg 91%
    03:00 -3°C° 0 mm 4 mps 734 mmHg 90%
    04:00 -4°C° 0 mm 4 mps 735 mmHg 89%
    05:00 -5°C° 0 mm 5 mps 735 mmHg 89%
    06:00 -6°C° 0 mm 5 mps 735 mmHg 88%
    07:00 -6°C° 0 mm 5 mps 736 mmHg 87%
    08:00 -6°C° 0 mm 5 mps 736 mmHg 86%
    09:00 -6°C° 0 mm 5 mps 736 mmHg 85%
    10:00 -5°C° 0 mm 5 mps 736 mmHg 81%
    11:00 -4°C° 0 mm 6 mps 737 mmHg 78%
    12:00 -4°C° 0 mm 6 mps 737 mmHg 74%
    13:00 -3°C° 0 mm 6 mps 737 mmHg 72%
    14:00 -2°C° 0 mm 5 mps 737 mmHg 69%
    15:00 -2°C° 0 mm 5 mps 737 mmHg 66%
    16:00 -2°C° 0 mm 5 mps 737 mmHg 69%
    17:00 -3°C° 0 mm 4 mps 738 mmHg 72%
    18:00 -4°C° 0 mm 3 mps 738 mmHg 74%
    19:00 -4°C° 0 mm 3 mps 738 mmHg 75%
    20:00 -4°C° 0 mm 3 mps 738 mmHg 76%
    21:00 -4°C° 0 mm 3 mps 738 mmHg 77%
    22:00 -4°C° 0 mm 4 mps 737 mmHg 78%
    23:00 -4°C° 0 mm 4 mps 737 mmHg 79%

    26 February, Wednesday

    Time Temperature Precipitation Wind Pressure Humidity
    00:00 -4°C° 0 mm 4 mps 737 mmHg 79%
    01:00 -5°C° 0 mm 5 mps 736 mmHg 82%
    02:00 -6°C° 0 mm 5 mps 736 mmHg 85%
    03:00 -6°C° 0 mm 5 mps 735 mmHg 88%
    04:00 -6°C° 0 mm 5 mps 735 mmHg 89%
    05:00 -5°C° 0 mm 6 mps 734 mmHg 91%
    06:00 -5°C° 0 mm 6 mps 734 mmHg 92%
    07:00 -5°C° 0.1 mm 6 mps 734 mmHg 91%
    08:00 -4°C° 0.1 mm 6 mps 733 mmHg 91%
    09:00 -4°C° 0.1 mm 7 mps 733 mmHg 91%
    10:00 -3°C° 0 mm 7 mps 733 mmHg 92%
    11:00 -2°C° 0 mm 7 mps 732 mmHg 92%
    12:00 -2°C° 0 mm 7 mps 732 mmHg 93%
    13:00 -1°C° 0.2 mm 7 mps 732 mmHg 94%
    14:00 -1°C° 0.2 mm 7 mps 731 mmHg 95%
    15:00 -1°C° 0.2 mm 6 mps 731 mmHg 96%
    16:00 -1°C° 0.1 mm 6 mps 731 mmHg 95%
    17:00 -1°C° 0.1 mm 6 mps 731 mmHg 94%
    18:00 -1°C° 0.1 mm 6 mps 731 mmHg 92%
    19:00 0°C° 0 mm 5 mps 732 mmHg 92%
    20:00 -1°C° 0 mm 5 mps 733 mmHg 92%
    21:00 -2°C° 0 mm 4 mps 733 mmHg 92%
    22:00 -2°C° 0 mm 4 mps 734 mmHg 92%
    23:00 -1°C° 0 mm 3 mps 734 mmHg 92%
    Show more